ProjectID,Date,Electric Generation,Electric Utility Import,Facility Electric Load
,YYYY-MM-DD,kW,kW,kW
533,2017-12-01,0.0,,0.0
533,2017-12-02,0.0,,0.0
533,2017-12-03,0.0,,0.0
533,2017-12-04,0.0,,0.0
533,2017-12-05,0.0,,0.0
533,2017-12-06,0.0,,0.0
533,2017-12-07,0.0,,0.0
533,2017-12-08,0.0,,0.0
533,2017-12-09,0.0,,0.0
533,2017-12-10,0.0,,0.0
533,2017-12-11,11.029583333333333,,11.029583333333333
533,2017-12-12,8.995833333333334,,8.995833333333334
533,2017-12-13,28.960416666666664,,28.960416666666664
533,2017-12-14,22.887083333333333,,22.887083333333333
533,2017-12-15,40.897083333333335,,40.897083333333335
533,2017-12-16,24.086249999999996,,24.086249999999996
533,2017-12-17,17.08583333333333,,17.08583333333333
533,2017-12-18,45.73791666666667,,45.73791666666667
533,2017-12-19,300.3420833333334,,300.3420833333334
533,2017-12-20,39.371249999999996,,39.371249999999996
533,2017-12-21,186.21875,,186.21875
533,2017-12-22,1.7466666666666668,,1.7466666666666668
533,2017-12-23,7.383749999999999,,7.383749999999999
533,2017-12-24,21.217499999999998,,21.217499999999998
533,2017-12-25,148.56541666666666,,148.56541666666666
533,2017-12-26,241.78916666666666,,241.78916666666666
533,2017-12-27,231.78125,,231.78125
533,2017-12-28,177.07666666666668,,177.07666666666668
533,2017-12-29,117.39958333333334,,117.39958333333334
533,2017-12-30,147.99958333333333,,147.99958333333333
533,2017-12-31,42.59666666666667,,42.59666666666667
533,2018-01-01,108.29874999999998,,108.29874999999998
533,2018-01-02,147.12875000000003,,147.12875000000003
533,2018-01-03,258.56166666666667,,258.56166666666667
533,2018-01-04,71.39916666666666,,71.39916666666666
533,2018-01-05,206.99291666666667,,206.99291666666667
533,2018-01-06,281.84791666666666,,281.84791666666666
533,2018-01-07,278.75041666666664,,278.75041666666664
533,2018-01-08,53.32166666666666,,53.32166666666666
533,2018-01-09,54.91958333333334,,54.91958333333334
533,2018-01-10,363.30625000000003,,363.30625000000003
533,2018-01-11,143.8741666666667,,143.8741666666667
533,2018-01-12,45.395833333333336,,45.395833333333336
533,2018-01-13,12.383333333333333,,12.383333333333333
533,2018-01-14,48.589166666666664,,48.589166666666664
533,2018-01-15,60.60833333333334,,60.60833333333334
533,2018-01-16,19.265833333333337,,19.265833333333337
533,2018-01-17,133.1604166666667,,133.1604166666667
533,2018-01-18,74.99916666666667,,74.99916666666667
533,2018-01-19,205.30416666666665,,205.30416666666665
533,2018-01-20,379.72541666666666,,379.72541666666666
533,2018-01-21,239.75875000000005,,239.75875000000005
533,2018-01-22,62.68791666666667,,62.68791666666667
533,2018-01-23,117.135,,117.135
533,2018-01-24,94.83333333333333,,94.83333333333333
533,2018-01-25,80.66208333333333,,80.66208333333333
533,2018-01-26,417.3374999999999,,417.3374999999999
533,2018-01-27,82.80541666666667,,82.80541666666667
533,2018-01-28,428.6420833333334,,428.6420833333334
533,2018-01-29,225.73000000000002,,225.73000000000002
533,2018-01-30,62.790833333333346,,62.790833333333346
533,2018-01-31,81.26499999999999,,81.26499999999999
533,2018-02-01,349.0495833333334,,349.0495833333334
533,2018-02-02,300.43125000000003,,300.43125000000003
533,2018-02-03,347.82124999999996,,347.82124999999996
533,2018-02-04,79.10916666666667,,79.10916666666667
533,2018-02-05,347.15625,,347.15625
533,2018-02-06,184.2804166666667,,184.2804166666667
533,2018-02-07,1.4916666666666665,,1.4916666666666665
533,2018-02-08,222.82291666666663,,222.82291666666663
533,2018-02-09,93.81958333333334,,93.81958333333334
533,2018-02-10,93.78791666666666,,93.78791666666666
533,2018-02-11,156.92916666666665,,156.92916666666665
533,2018-02-12,449.26833333333326,,449.26833333333326
533,2018-02-13,409.3620833333334,,409.3620833333334
533,2018-02-14,364.36500000000007,,364.36500000000007
533,2018-02-15,296.55583333333334,,296.55583333333334
533,2018-02-16,198.7145833333333,,198.7145833333333
533,2018-02-17,228.75874999999996,,228.75874999999996
533,2018-02-18,210.92833333333337,,210.92833333333337
533,2018-02-19,109.22916666666669,,109.22916666666669
533,2018-02-20,115.22416666666665,,115.22416666666665
533,2018-02-21,100.52083333333331,,100.52083333333331
533,2018-02-22,31.593750000000004,,31.593750000000004
533,2018-02-23,75.34749999999998,,75.34749999999998
533,2018-02-24,108.70583333333333,,108.70583333333333
533,2018-02-25,165.6525,,165.6525
533,2018-02-26,576.4583333333334,,576.4583333333334
533,2018-02-27,547.2629166666667,,547.2629166666667
533,2018-02-28,277.36083333333335,,277.36083333333335
533,2018-03-01,92.25916666666667,,92.25916666666667
533,2018-03-02,0.0,,0.0
533,2018-03-03,0.0,,0.0
533,2018-03-04,0.0,,0.0
533,2018-03-05,122.28249999999998,,122.28249999999998
533,2018-03-06,381.8383333333333,,381.8383333333333
533,2018-03-07,110.35166666666667,,110.35166666666667
533,2018-03-08,373.4816666666666,,373.4816666666666
533,2018-03-09,292.59125,,292.59125
533,2018-03-10,240.53374999999997,,240.53374999999997
533,2018-03-11,371.90500000000003,,371.90500000000003
533,2018-03-12,400.4258333333333,,400.4258333333333
533,2018-03-13,339.68874999999997,,339.68874999999997
533,2018-03-14,235.5533333333333,,235.5533333333333
533,2018-03-15,553.8375,,553.8375
533,2018-03-16,410.2054166666666,,410.2054166666666
533,2018-03-17,645.5470833333334,,645.5470833333334
533,2018-03-18,530.85125,,530.85125
533,2018-03-19,654.6708333333333,,654.6708333333333
533,2018-03-20,573.0704166666668,,573.0704166666668
533,2018-03-21,545.3045833333334,,545.3045833333334
533,2018-03-22,626.5704166666667,,626.5704166666667
533,2018-03-23,650.4429166666667,,650.4429166666667
533,2018-03-24,608.52375,,608.52375
533,2018-03-25,644.1770833333333,,644.1770833333333
533,2018-03-26,654.4895833333334,,654.4895833333334
533,2018-03-27,161.98166666666665,,161.98166666666665
533,2018-03-28,117.82041666666667,,117.82041666666667
533,2018-03-29,134.065,,134.065
533,2018-03-30,173.09125000000003,,173.09125000000003
533,2018-03-31,217.89333333333332,,217.89333333333332
533,2018-04-01,191.21083333333334,,191.21083333333334
533,2018-04-02,600.1849999999998,,600.1849999999998
533,2018-04-03,71.58833333333332,,71.58833333333332
533,2018-04-04,294.6354166666667,,294.6354166666667
533,2018-04-05,409.5391666666667,,409.5391666666667
533,2018-04-06,219.91166666666666,,219.91166666666666
533,2018-04-07,356.8616666666666,,356.8616666666666
533,2018-04-08,347.6329166666667,,347.6329166666667
533,2018-04-09,558.1825,,558.1825
533,2018-04-10,394.33874999999995,,394.33874999999995
533,2018-04-11,358.5858333333333,,358.5858333333333
533,2018-04-12,142.40875,,142.40875
533,2018-04-13,234.53666666666666,,234.53666666666666
533,2018-04-14,121.67708333333333,,121.67708333333333
533,2018-04-15,79.91916666666667,,79.91916666666667
533,2018-04-16,124.86458333333333,,124.86458333333333
533,2018-04-17,197.20041666666668,,197.20041666666668
533,2018-04-18,289.5,,289.5
533,2018-04-19,279.3541666666667,,279.3541666666667
533,2018-04-20,400.62000000000006,,400.62000000000006
533,2018-04-21,694.3358333333332,,694.3358333333332
533,2018-04-22,693.5833333333334,,693.5833333333334
533,2018-04-23,684.71875,,684.71875
533,2018-04-24,521.2445833333335,,521.2445833333335
533,2018-04-25,149.61958333333334,,149.61958333333334
533,2018-04-26,503.7658333333334,,503.7658333333334
533,2018-04-27,391.2995833333334,,391.2995833333334
533,2018-04-28,211.84375,,211.84375
533,2018-04-29,268.62999999999994,,268.62999999999994
533,2018-04-30,592.2395833333334,,592.2395833333334
533,2018-05-01,622.4741666666666,,622.4741666666666
533,2018-05-02,579.34875,,579.34875
533,2018-05-03,342.0416666666667,,342.0416666666667
533,2018-05-04,341.2291666666667,,341.2291666666667
533,2018-05-05,596.4529166666665,,596.4529166666665
533,2018-05-06,395.84874999999994,,395.84874999999994
533,2018-05-07,534.6850000000001,,534.6850000000001
533,2018-05-08,625.7916666666666,,625.7916666666666
533,2018-05-09,534.6483333333333,,534.6483333333333
533,2018-05-10,326.7683333333334,,326.7683333333334
533,2018-05-11,537.3516666666668,,537.3516666666668
533,2018-05-12,207.70041666666665,,207.70041666666665
533,2018-05-13,481.95041666666674,,481.95041666666674
533,2018-05-14,582.9816666666667,,582.9816666666667
533,2018-05-15,250.66958333333332,,250.66958333333332
533,2018-05-16,481.28666666666663,,481.28666666666663
533,2018-05-17,661.9816666666667,,661.9816666666667
533,2018-05-18,680.3437500000001,,680.3437500000001
533,2018-05-19,285.8541666666667,,285.8541666666667
533,2018-05-20,178.22416666666666,,178.22416666666666
533,2018-05-21,690.0258333333333,,690.0258333333333
533,2018-05-22,218.06791666666666,,218.06791666666666
533,2018-05-23,673.0470833333333,,673.0470833333333
533,2018-05-24,680.1666666666666,,680.1666666666666
533,2018-05-25,670.33875,,670.33875
533,2018-05-26,446.71333333333337,,446.71333333333337
533,2018-05-27,230.02583333333334,,230.02583333333334
533,2018-05-28,563.2291666666666,,563.2291666666666
533,2018-05-29,671.2758333333334,,671.2758333333334
533,2018-05-30,649.8595833333333,,649.8595833333333
533,2018-05-31,378.2033333333333,,378.2033333333333
533,2018-06-01,355.0833333333333,,355.0833333333333
533,2018-06-02,326.3229166666667,,326.3229166666667
533,2018-06-03,274.53625,,274.53625
533,2018-06-04,414.6404166666666,,414.6404166666666
533,2018-06-05,314.37,,314.37
533,2018-06-06,292.8179166666667,,292.8179166666667
533,2018-06-07,553.28125,,553.28125
533,2018-06-08,613.59375,,613.59375
533,2018-06-09,444.7966666666667,,444.7966666666667
533,2018-06-10,495.3283333333334,,495.3283333333334
533,2018-06-11,695.1041666666666,,695.1041666666666
533,2018-06-12,678.4479166666666,,678.4479166666666
533,2018-06-13,402.0520833333334,,402.0520833333334
533,2018-06-14,694.0520833333334,,694.0520833333334
533,2018-06-15,647.0625000000001,,647.0625000000001
533,2018-06-16,670.6616666666667,,670.6616666666667
533,2018-06-17,625.7187499999999,,625.7187499999999
533,2018-06-18,437.80749999999995,,437.80749999999995
533,2018-06-19,643.1825,,643.1825
533,2018-06-20,402.77625000000006,,402.77625000000006
533,2018-06-21,679.5729166666666,,679.5729166666666
533,2018-06-22,462.6666666666667,,462.6666666666667
533,2018-06-23,307.7758333333333,,307.7758333333333
533,2018-06-24,164.46875,,164.46875
533,2018-06-25,707.5258333333333,,707.5258333333333
533,2018-06-26,691.6979166666666,,691.6979166666666
533,2018-06-27,136.57291666666666,,136.57291666666666
533,2018-06-28,412.53125000000006,,412.53125000000006
533,2018-06-29,665.6095833333333,,665.6095833333333
533,2018-06-30,642.7970833333333,,642.7970833333333
533,2018-07-01,632.6041666666667,,632.6041666666667
533,2018-07-02,552.1354166666666,,552.1354166666666
533,2018-07-03,650.9216666666666,,650.9216666666666
533,2018-07-04,637.2445833333334,,637.2445833333334
533,2018-07-05,428.3695833333333,,428.3695833333333
533,2018-07-06,529.5208333333334,,529.5208333333334
533,2018-07-07,666.1666666666667,,666.1666666666667
533,2018-07-08,660.59875,,660.59875
533,2018-07-09,659.6404166666666,,659.6404166666666
533,2018-07-10,579.6825,,579.6825
533,2018-07-11,687.2237500000001,,687.2237500000001
533,2018-07-12,626.5000000000001,,626.5000000000001
533,2018-07-13,650.25,,650.25
533,2018-07-14,486.0833333333334,,486.0833333333334
533,2018-07-15,598.4533333333334,,598.4533333333334
533,2018-07-16,516.7604166666666,,516.7604166666666
533,2018-07-17,513.6979166666666,,513.6979166666666
533,2018-07-18,569.4479166666666,,569.4479166666666
533,2018-07-19,679.5416666666666,,679.5416666666666
533,2018-07-20,673.1354166666667,,673.1354166666667
533,2018-07-21,397.7083333333333,,397.7083333333333
533,2018-07-22,391.3854166666667,,391.3854166666667
533,2018-07-23,250.05208333333334,,250.05208333333334
533,2018-07-24,245.60416666666666,,245.60416666666666
533,2018-07-25,219.53666666666666,,219.53666666666666
533,2018-07-26,623.9374999999999,,623.9374999999999
533,2018-07-27,510.34374999999994,,510.34374999999994
533,2018-07-28,593.7187499999999,,593.7187499999999
533,2018-07-29,602.3908333333333,,602.3908333333333
533,2018-07-30,318.4945833333333,,318.4945833333333
533,2018-07-31,510.5158333333334,,510.5158333333334
533,2018-08-01,323.0570833333333,,323.0570833333333
533,2018-08-02,388.33874999999995,,388.33874999999995
533,2018-08-03,252.1825,,252.1825
533,2018-08-04,537.1825,,537.1825
533,2018-08-05,624.1041666666667,,624.1041666666667
533,2018-08-06,544.59375,,544.59375
533,2018-08-07,321.6720833333333,,321.6720833333333
533,2018-08-08,266.8075,,266.8075
533,2018-08-09,575.4841666666666,,575.4841666666666
533,2018-08-10,568.87,,568.87
533,2018-08-11,521.53625,,521.53625
533,2018-08-12,492.7916666666667,,492.7916666666667
533,2018-08-13,196.97416666666666,,196.97416666666666
533,2018-08-14,157.33875,,157.33875
533,2018-08-15,121.72916666666667,,121.72916666666667
533,2018-08-16,0.0,,0.0
533,2018-08-17,0.0,,0.0
533,2018-08-18,0.0,,0.0
533,2018-08-19,0.0,,0.0
533,2018-08-20,0.0,,0.0
533,2018-08-21,0.0,,0.0
533,2018-08-22,205.86458333333334,,205.86458333333334
533,2018-08-23,580.0104166666666,,580.0104166666666
533,2018-08-24,575.4479166666666,,575.4479166666666
533,2018-08-25,525.0208333333334,,525.0208333333334
533,2018-08-26,478.875,,478.875
533,2018-08-27,285.84375,,285.84375
533,2018-08-28,571.4166666666666,,571.4166666666666
533,2018-08-29,477.4583333333333,,477.4583333333333
533,2018-08-30,380.7916666666667,,380.7916666666667
533,2018-08-31,440.78125,,440.78125
533,2018-09-01,534.5833333333334,,534.5833333333334
533,2018-09-02,470.3333333333333,,470.3333333333333
533,2018-09-03,507.2604166666667,,507.2604166666667
533,2018-09-04,481.5104166666667,,481.5104166666667
533,2018-09-05,537.34375,,537.34375
533,2018-09-06,267.4479166666667,,267.4479166666667
533,2018-09-07,407.46875,,407.46875
533,2018-09-08,270.4583333333333,,270.4583333333333
533,2018-09-09,201.70833333333334,,201.70833333333334
533,2018-09-10,85.41666666666667,,85.41666666666667
533,2018-09-11,214.13541666666666,,214.13541666666666
533,2018-09-12,310.3125,,310.3125
533,2018-09-13,360.34375,,360.34375
533,2018-09-14,418.8125,,418.8125
533,2018-09-15,560.84375,,560.84375
533,2018-09-16,579.6041666666666,,579.6041666666666
533,2018-09-17,348.65625,,348.65625
533,2018-09-18,486.8854166666667,,486.8854166666667
533,2018-09-19,300.3333333333333,,300.3333333333333
533,2018-09-20,413.3541666666667,,413.3541666666667
533,2018-09-21,553.1458333333334,,553.1458333333334
533,2018-09-22,406.3229166666667,,406.3229166666667
533,2018-09-23,570.7604166666666,,570.7604166666666
533,2018-09-24,490.7083333333333,,490.7083333333333
533,2018-09-25,264.15625,,264.15625
533,2018-09-26,143.14583333333334,,143.14583333333334
533,2018-09-27,320.46875,,320.46875
533,2018-09-28,538.4479166666666,,538.4479166666666
533,2018-09-29,518.8229166666666,,518.8229166666666
533,2018-09-30,159.30208333333334,,159.30208333333334
533,2018-10-01,49.541666666666664,,49.541666666666664
533,2018-10-02,116.9375,,116.9375
533,2018-10-03,205.875,,205.875
533,2018-10-04,206.58333333333334,,206.58333333333334
533,2018-10-05,497.78125,,497.78125
533,2018-10-06,260.6770833333333,,260.6770833333333
533,2018-10-07,75.47916666666667,,75.47916666666667
533,2018-10-08,400.4583333333333,,400.4583333333333
533,2018-10-09,492.84375,,492.84375
533,2018-10-10,307.1041666666667,,307.1041666666667
533,2018-10-11,144.10416666666666,,144.10416666666666
533,2018-10-12,170.82291666666666,,170.82291666666666
533,2018-10-13,328.9479166666667,,328.9479166666667
533,2018-10-14,466.21875,,466.21875
533,2018-10-15,91.19791666666667,,91.19791666666667
533,2018-10-16,335.875,,335.875
533,2018-10-17,232.0625,,232.0625
533,2018-10-18,334.6041666666667,,334.6041666666667
533,2018-10-19,377.3958333333333,,377.3958333333333
533,2018-10-20,284.7916666666667,,284.7916666666667
533,2018-10-21,235.375,,235.375
533,2018-10-22,170.59375,,170.59375
533,2018-10-23,167.61458333333334,,167.61458333333334
533,2018-10-24,58.135416666666664,,58.135416666666664
533,2018-10-25,227.07291666666666,,227.07291666666666
533,2018-10-26,120.77083333333333,,120.77083333333333
533,2018-10-27,29.479166666666668,,29.479166666666668
533,2018-10-28,73.63541666666667,,73.63541666666667
533,2018-10-29,102.51041666666667,,102.51041666666667
533,2018-10-30,505.0,,505.0
533,2018-10-31,96.875,,96.875
533,2018-11-01,52.333333333333336,,52.333333333333336
533,2018-11-02,119.45833333333333,,119.45833333333333
533,2018-11-03,133.71875,,133.71875
533,2018-11-04,382.8125,,382.8125
533,2018-11-05,144.65625,,144.65625
533,2018-11-06,148.61458333333334,,148.61458333333334
533,2018-11-07,442.9791666666667,,442.9791666666667
533,2018-11-08,178.97916666666666,,178.97916666666666
533,2018-11-09,21.0,,21.0
533,2018-11-10,295.2916666666667,,295.2916666666667
533,2018-11-11,289.8125,,289.8125
533,2018-11-12,174.10416666666666,,174.10416666666666
533,2018-11-13,68.33333333333333,,68.33333333333333
533,2018-11-14,16.75,,16.75
533,2018-11-15,7.927083333333333,,7.927083333333333
533,2018-11-16,6.1875,,6.1875
533,2018-11-17,55.666666666666664,,55.666666666666664
533,2018-11-18,78.86458333333333,,78.86458333333333
533,2018-11-19,244.33333333333334,,244.33333333333334
533,2018-11-20,125.90625,,125.90625
533,2018-11-21,73.82291666666667,,73.82291666666667
533,2018-11-22,99.0625,,99.0625
533,2018-11-23,133.25,,133.25
533,2018-11-24,136.59375,,136.59375
533,2018-11-25,65.72916666666667,,65.72916666666667
533,2018-11-26,21.677083333333332,,21.677083333333332
533,2018-11-27,63.020833333333336,,63.020833333333336
533,2018-11-28,103.63541666666667,,103.63541666666667
533,2018-11-29,49.010416666666664,,49.010416666666664
533,2018-11-30,70.38541666666667,,70.38541666666667
533,2018-12-01,73.0625,,73.0625
533,2018-12-02,196.92708333333334,,196.92708333333334
533,2018-12-03,52.447916666666664,,52.447916666666664
533,2018-12-04,3.6354166666666665,,3.6354166666666665
533,2018-12-05,6.885416666666667,,6.885416666666667
533,2018-12-06,60.041666666666664,,60.041666666666664
533,2018-12-07,19.6875,,19.6875
533,2018-12-08,34.989583333333336,,34.989583333333336
533,2018-12-09,268.4895833333333,,268.4895833333333
533,2018-12-10,78.30208333333333,,78.30208333333333
533,2018-12-11,63.958333333333336,,63.958333333333336
533,2018-12-12,78.33333333333333,,78.33333333333333
533,2018-12-13,171.70833333333334,,171.70833333333334
533,2018-12-14,65.83333333333333,,65.83333333333333
533,2018-12-15,56.322916666666664,,56.322916666666664
533,2018-12-16,32.354166666666664,,32.354166666666664
533,2018-12-17,41.78125,,41.78125
533,2018-12-18,124.88541666666667,,124.88541666666667
533,2018-12-19,279.0104166666667,,279.0104166666667
533,2018-12-20,136.05208333333334,,136.05208333333334
533,2018-12-21,187.73958333333334,,187.73958333333334
533,2018-12-22,5.572916666666667,,5.572916666666667
533,2018-12-23,9.572916666666666,,9.572916666666666
533,2018-12-24,45.71875,,45.71875
533,2018-12-25,202.19791666666666,,202.19791666666666
533,2018-12-26,116.77083333333333,,116.77083333333333
533,2018-12-27,227.15625,,227.15625
533,2018-12-28,26.604166666666668,,26.604166666666668
533,2018-12-29,35.395833333333336,,35.395833333333336
533,2018-12-30,29.708333333333332,,29.708333333333332
533,2018-12-31,95.29166666666667,,95.29166666666667
533,2019-01-01,38.385416666666664,,38.385416666666664
533,2019-01-02,108.64583333333333,,108.64583333333333
533,2019-01-03,29.385416666666668,,29.385416666666668
533,2019-01-04,241.36458333333334,,241.36458333333334
533,2019-01-05,75.48958333333333,,75.48958333333333
533,2019-01-06,87.13541666666667,,87.13541666666667
533,2019-01-07,64.625,,64.625
533,2019-01-08,70.36458333333333,,70.36458333333333
533,2019-01-09,86.375,,86.375
533,2019-01-10,161.11458333333334,,161.11458333333334
533,2019-01-11,178.19791666666666,,178.19791666666666
533,2019-01-12,177.44791666666666,,177.44791666666666
533,2019-01-13,395.9479166666667,,395.9479166666667
533,2019-01-14,356.84375,,356.84375
533,2019-01-15,70.88541666666667,,70.88541666666667
533,2019-01-16,106.27083333333333,,106.27083333333333
533,2019-01-17,148.59375,,148.59375
533,2019-01-18,27.104166666666668,,27.104166666666668
533,2019-01-19,11.479166666666666,,11.479166666666666
533,2019-01-20,3.8854166666666665,,3.8854166666666665
533,2019-01-21,160.04166666666666,,160.04166666666666
533,2019-01-22,173.01041666666666,,173.01041666666666
533,2019-01-23,81.32291666666667,,81.32291666666667
533,2019-01-24,33.791666666666664,,33.791666666666664
533,2019-01-25,79.5,,79.5
533,2019-01-26,379.5520833333333,,379.5520833333333
533,2019-01-27,256.5520833333333,,256.5520833333333
533,2019-01-28,369.875,,369.875
533,2019-01-29,43.385416666666664,,43.385416666666664
533,2019-01-30,261.65625,,261.65625
533,2019-01-31,494.0520833333333,,494.0520833333333
533,2019-02-01,476.4791666666667,,476.4791666666667
533,2019-02-02,204.27083333333334,,204.27083333333334
533,2019-02-03,350.53125,,350.53125
533,2019-02-04,436.8229166666667,,436.8229166666667
533,2019-02-05,49.916666666666664,,49.916666666666664
533,2019-02-06,48.958333333333336,,48.958333333333336
533,2019-02-07,87.75,,87.75
533,2019-02-08,181.34375,,181.34375
533,2019-02-09,258.6770833333333,,258.6770833333333
533,2019-02-10,370.4270833333333,,370.4270833333333
533,2019-02-11,141.48958333333334,,141.48958333333334
533,2019-02-12,25.791666666666668,,25.791666666666668
533,2019-02-13,122.77083333333333,,122.77083333333333
533,2019-02-14,319.6041666666667,,319.6041666666667
533,2019-02-15,180.60416666666666,,180.60416666666666
533,2019-02-16,294.59375,,294.59375
533,2019-02-17,366.0208333333333,,366.0208333333333
533,2019-02-18,19.416666666666668,,19.416666666666668
533,2019-02-19,221.04166666666666,,221.04166666666666
533,2019-02-20,160.98958333333334,,160.98958333333334
533,2019-02-21,198.90625,,198.90625
533,2019-02-22,119.16666666666667,,119.16666666666667
533,2019-02-23,302.0729166666667,,302.0729166666667
533,2019-02-24,211.85416666666666,,211.85416666666666
533,2019-02-25,289.84375,,289.84375
533,2019-02-26,67.30208333333333,,67.30208333333333
533,2019-02-27,18.1875,,18.1875
533,2019-02-28,5.302083333333333,,5.302083333333333
533,2019-03-01,169.14583333333334,,169.14583333333334
533,2019-03-02,195.75,,195.75
533,2019-03-03,293.5104166666667,,293.5104166666667
533,2019-03-04,53.645833333333336,,53.645833333333336
533,2019-03-05,305.8541666666667,,305.8541666666667
533,2019-03-06,511.5,,511.5
533,2019-03-07,439.5729166666667,,439.5729166666667
533,2019-03-08,579.28125,,579.28125
533,2019-03-09,612.8541666666666,,612.8541666666666
533,2019-03-10,124.32291666666667,,124.32291666666667
533,2019-03-11,354.21875,,354.21875
533,2019-03-12,334.15625,,334.15625
533,2019-03-13,189.10416666666666,,189.10416666666666
533,2019-03-14,336.625,,336.625
533,2019-03-15,238.01041666666666,,238.01041666666666
533,2019-03-16,349.3333333333333,,349.3333333333333
533,2019-03-17,342.1145833333333,,342.1145833333333
533,2019-03-18,341.75,,341.75
533,2019-03-19,341.9791666666667,,341.9791666666667
533,2019-03-20,599.1666666666666,,599.1666666666666
533,2019-03-21,179.91666666666666,,179.91666666666666
533,2019-03-22,145.20833333333334,,145.20833333333334
533,2019-03-23,659.6354166666666,,659.6354166666666
533,2019-03-24,320.0,,320.0
533,2019-03-25,662.6458333333334,,662.6458333333334
533,2019-03-26,664.5104166666666,,664.5104166666666
533,2019-03-27,628.4479166666666,,628.4479166666666
533,2019-03-28,224.14583333333334,,224.14583333333334
533,2019-03-29,267.3645833333333,,267.3645833333333
533,2019-03-30,122.09375,,122.09375
533,2019-03-31,246.39583333333334,,246.39583333333334
533,2019-04-01,583.5520833333334,,583.5520833333334